iso_date,epoch_date,Year,Hour,Min,DOY,POS_DOY,Lat,Lon,BP,Ts,Ta,has_bp,has_ts,has_ta,BuoyID,Buoy_Type,Buoy_Owner,Logistics,Hemisphere
2015-08-18T13:36:28Z,1439904989,2015,13,37,230.567,227.723,73.4784,-168.8442,1021.6,3.1,-999.0,yes,yes,no,300234061364420,BD2GI,AOML,UNKNOWN,North
2015-08-18T13:58:04Z,1439906285,2015,13,58,230.582,227.738,73.4896,-168.8454,1022.1,4.0,-999.0,yes,yes,no,300234061364420,BD2GI,AOML,UNKNOWN,North
2015-08-18T13:59:31Z,1439906371,2015,14,0,230.583,227.739,73.4896,-168.8454,1022.2,4.0,-999.0,yes,yes,no,300234061364420,BD2GI,AOML,UNKNOWN,North
2015-08-18T15:00:00Z,1439910000,2015,15,0,230.625,230.625,73.4866,-168.8428,1022.0,4.0,-999.0,yes,yes,no,300234061364420,BD2GI,AOML,UNKNOWN,North
2015-08-18T16:00:28Z,1439913629,2015,16,0,230.667,230.625,73.4866,-168.8428,1022.0,4.0,-999.0,yes,yes,no,300234061364420,BD2GI,AOML,UNKNOWN,North
2015-08-18T16:59:31Z,1439917171,2015,17,0,230.708,230.625,73.4866,-168.8428,1022.0,4.0,-999.0,yes,yes,no,300234061364420,BD2GI,AOML,UNKNOWN,North
2015-08-18T18:00:00Z,1439920800,2015,18,0,230.75,230.75,73.4844,-168.845,1022.1,4.0,-999.0,yes,yes,no,300234061364420,BD2GI,AOML,UNKNOWN,North
2015-08-18T19:00:28Z,1439924429,2015,19,0,230.792,230.75,73.4844,-168.845,1022.3,4.0,-999.0,yes,yes,no,300234061364420,BD2GI,AOML,UNKNOWN,North
2015-08-18T19:59:31Z,1439927971,2015,20,0,230.833,230.75,73.4844,-168.845,1022.6,4.0,-999.0,yes,yes,no,300234061364420,BD2GI,AOML,UNKNOWN,North
2015-08-18T21:00:00Z,1439931600,2015,21,0,230.875,230.875,73.4898,-168.82,1022.9,3.9,-999.0,yes,yes,no,300234061364420,BD2GI,AOML,UNKNOWN,North
2015-08-18T22:00:28Z,1439935229,2015,22,0,230.917,230.875,73.4898,-168.82,1023.2,3.9,-999.0,yes,yes,no,300234061364420,BD2GI,AOML,UNKNOWN,North
2015-08-18T22:59:31Z,1439938771,2015,23,0,230.958,230.875,73.4898,-168.82,1023.4,3.9,-999.0,yes,yes,no,300234061364420,BD2GI,AOML,UNKNOWN,North
2015-08-19T00:00:00Z,1439942400,2015,0,0,231.0,231.0,73.4932,-168.808,1023.5,3.9,-999.0,yes,yes,no,300234061364420,BD2GI,AOML,UNKNOWN,North
2015-08-19T01:00:28Z,1439946029,2015,1,0,231.042,231.0,73.4932,-168.808,1023.8,3.9,-999.0,yes,yes,no,300234061364420,BD2GI,AOML,UNKNOWN,North
2015-08-19T01:59:31Z,1439949571,2015,2,0,231.083,231.0,73.4932,-168.808,1023.9,3.9,-999.0,yes,yes,no,300234061364420,BD2GI,AOML,UNKNOWN,North
2015-08-19T03:00:00Z,1439953200,2015,3,0,231.125,231.125,73.4972,-168.816,1024.0,3.9,-999.0,yes,yes,no,300234061364420,BD2GI,AOML,UNKNOWN,North
2015-08-19T04:00:28Z,1439956829,2015,4,0,231.167,231.125,73.4972,-168.816,1024.2,3.9,-999.0,yes,yes,no,300234061364420,BD2GI,AOML,UNKNOWN,North
2015-08-19T04:59:31Z,1439960371,2015,5,0,231.208,231.125,73.4972,-168.816,1024.3,3.8,-999.0,yes,yes,no,300234061364420,BD2GI,AOML,UNKNOWN,North
2015-08-19T06:00:00Z,1439964000,2015,6,0,231.25,231.25,73.5058,-168.8258,1024.5,3.8,-999.0,yes,yes,no,300234061364420,BD2GI,AOML,UNKNOWN,North
2015-08-19T07:00:28Z,1439967629,2015,7,0,231.292,231.25,73.5058,-168.8258,1024.8,3.8,-999.0,yes,yes,no,300234061364420,BD2GI,AOML,UNKNOWN,North
2015-08-19T07:59:31Z,1439971171,2015,8,0,231.333,231.25,73.5058,-168.8258,1025.2,3.8,-999.0,yes,yes,no,300234061364420,BD2GI,AOML,UNKNOWN,North
2015-08-19T09:00:00Z,1439974800,2015,9,0,231.375,231.375,73.5098,-168.8276,1025.3,3.8,-999.0,yes,yes,no,300234061364420,BD2GI,AOML,UNKNOWN,North
2015-08-19T10:00:28Z,1439978429,2015,10,0,231.417,231.375,73.5098,-168.8276,1025.6,3.8,-999.0,yes,yes,no,300234061364420,BD2GI,AOML,UNKNOWN,North
2015-08-19T10:59:31Z,1439981971,2015,11,0,231.458,231.375,73.5098,-168.8276,1025.7,3.8,-999.0,yes,yes,no,300234061364420,BD2GI,AOML,UNKNOWN,North
2015-08-19T12:00:00Z,1439985600,2015,12,0,231.5,231.5,73.5074,-168.8396,1025.6,3.8,-999.0,yes,yes,no,300234061364420,BD2GI,AOML,UNKNOWN,North
2015-08-19T13:00:28Z,1439989229,2015,13,0,231.542,231.5,73.5074,-168.8396,1025.7,3.8,-999.0,yes,yes,no,300234061364420,BD2GI,AOML,UNKNOWN,North
2015-08-19T13:59:31Z,1439992771,2015,14,0,231.583,231.5,73.5074,-168.8396,1025.5,3.8,-999.0,yes,yes,no,300234061364420,BD2GI,AOML,UNKNOWN,North
2015-08-19T15:00:00Z,1439996400,2015,15,0,231.625,231.625,73.5068,-168.8624,1025.5,3.8,-999.0,yes,yes,no,300234061364420,BD2GI,AOML,UNKNOWN,North
2015-08-19T16:00:28Z,1440000029,2015,16,0,231.667,231.625,73.5068,-168.8624,1025.4,3.8,-999.0,yes,yes,no,300234061364420,BD2GI,AOML,UNKNOWN,North
2015-08-19T16:59:31Z,1440003571,2015,17,0,231.708,231.625,73.5068,-168.8624,1025.4,3.9,-999.0,yes,yes,no,300234061364420,BD2GI,AOML,UNKNOWN,North
2015-08-19T18:00:00Z,1440007200,2015,18,0,231.75,231.75,73.5078,-168.8734,1025.2,3.9,-999.0,yes,yes,no,300234061364420,BD2GI,AOML,UNKNOWN,North
2015-08-19T19:00:28Z,1440010829,2015,19,0,231.792,231.75,73.5078,-168.8734,1025.3,3.8,-999.0,yes,yes,no,300234061364420,BD2GI,AOML,UNKNOWN,North
2015-08-19T19:59:31Z,1440014371,2015,20,0,231.833,231.75,73.5078,-168.8734,1025.3,3.8,-999.0,yes,yes,no,300234061364420,BD2GI,AOML,UNKNOWN,North
2015-08-19T21:00:00Z,1440018000,2015,21,0,231.875,231.875,73.5054,-168.878,1025.5,3.8,-999.0,yes,yes,no,300234061364420,BD2GI,AOML,UNKNOWN,North
2015-08-19T22:00:28Z,1440021629,2015,22,0,231.917,231.875,73.5054,-168.878,1025.4,3.6,-999.0,yes,yes,no,300234061364420,BD2GI,AOML,UNKNOWN,North
2015-08-19T22:59:31Z,1440025171,2015,23,0,231.958,231.875,73.5054,-168.878,1025.4,3.6,-999.0,yes,yes,no,300234061364420,BD2GI,AOML,UNKNOWN,North
2015-08-20T00:00:00Z,1440028800,2015,0,0,232.0,232.0,73.4994,-168.8882,1025.4,3.7,-999.0,yes,yes,no,300234061364420,BD2GI,AOML,UNKNOWN,North
2015-08-20T01:00:28Z,1440032429,2015,1,0,232.042,232.0,73.4994,-168.8882,1025.1,3.8,-999.0,yes,yes,no,300234061364420,BD2GI,AOML,UNKNOWN,North
2015-08-20T01:59:31Z,1440035971,2015,2,0,232.083,232.0,73.4994,-168.8882,1025.0,3.8,-999.0,yes,yes,no,300234061364420,BD2GI,AOML,UNKNOWN,North
2015-08-20T03:00:00Z,1440039600,2015,3,0,232.125,232.125,73.4944,-168.905,1024.9,3.8,-999.0,yes,yes,no,300234061364420,BD2GI,AOML,UNKNOWN,North
2015-08-20T04:00:28Z,1440043229,2015,4,0,232.167,232.125,73.4944,-168.905,1024.9,3.9,-999.0,yes,yes,no,300234061364420,BD2GI,AOML,UNKNOWN,North
2015-08-20T04:59:31Z,1440046771,2015,5,0,232.208,232.125,73.4944,-168.905,1024.8,3.9,-999.0,yes,yes,no,300234061364420,BD2GI,AOML,UNKNOWN,North
2015-08-20T06:00:00Z,1440050400,2015,6,0,232.25,232.25,73.492,-168.9266,1024.8,3.9,-999.0,yes,yes,no,300234061364420,BD2GI,AOML,UNKNOWN,North
2015-08-20T07:00:28Z,1440054029,2015,7,0,232.292,232.25,73.492,-168.9266,1024.9,3.8,-999.0,yes,yes,no,300234061364420,BD2GI,AOML,UNKNOWN,North
2015-08-20T07:59:31Z,1440057571,2015,8,0,232.333,232.25,73.492,-168.9266,1025.0,3.8,-999.0,yes,yes,no,300234061364420,BD2GI,AOML,UNKNOWN,North
2015-08-20T09:00:00Z,1440061200,2015,9,0,232.375,232.375,73.489,-168.941,1025.1,3.8,-999.0,yes,yes,no,300234061364420,BD2GI,AOML,UNKNOWN,North
2015-08-20T10:00:28Z,1440064829,2015,10,0,232.417,232.375,73.489,-168.941,1025.0,3.8,-999.0,yes,yes,no,300234061364420,BD2GI,AOML,UNKNOWN,North
2015-08-20T10:59:31Z,1440068371,2015,11,0,232.458,232.375,73.489,-168.941,1024.9,3.8,-999.0,yes,yes,no,300234061364420,BD2GI,AOML,UNKNOWN,North
2015-08-20T12:00:00Z,1440072000,2015,12,0,232.5,232.5,73.482,-168.9534,1024.8,3.7,-999.0,yes,yes,no,300234061364420,BD2GI,AOML,UNKNOWN,North
2015-08-20T13:00:28Z,1440075629,2015,13,0,232.542,232.5,73.482,-168.9534,1024.6,3.6,-999.0,yes,yes,no,300234061364420,BD2GI,AOML,UNKNOWN,North
2015-08-20T13:59:31Z,1440079171,2015,14,0,232.583,232.5,73.482,-168.9534,1024.2,3.6,-999.0,yes,yes,no,300234061364420,BD2GI,AOML,UNKNOWN,North
2015-08-20T15:00:00Z,1440082800,2015,15,0,232.625,232.625,73.4748,-168.9822,1024.0,3.7,-999.0,yes,yes,no,300234061364420,BD2GI,AOML,UNKNOWN,North
2015-08-20T16:00:28Z,1440086429,2015,16,0,232.667,232.625,73.4748,-168.9822,1023.7,3.7,-999.0,yes,yes,no,300234061364420,BD2GI,AOML,UNKNOWN,North
2015-08-20T16:59:31Z,1440089971,2015,17,0,232.708,232.625,73.4748,-168.9822,1023.6,3.7,-999.0,yes,yes,no,300234061364420,BD2GI,AOML,UNKNOWN,North
2015-08-20T18:00:00Z,1440093600,2015,18,0,232.75,232.75,73.4746,-169.0242,1023.6,3.6,-999.0,yes,yes,no,300234061364420,BD2GI,AOML,UNKNOWN,North
2015-08-20T19:00:28Z,1440097229,2015,19,0,232.792,232.75,73.4746,-169.0242,1023.4,3.6,-999.0,yes,yes,no,300234061364420,BD2GI,AOML,UNKNOWN,North
2015-08-20T19:59:31Z,1440100771,2015,20,0,232.833,232.75,73.4746,-169.0242,1023.2,3.6,-999.0,yes,yes,no,300234061364420,BD2GI,AOML,UNKNOWN,North
2015-08-20T21:00:00Z,1440104400,2015,21,0,232.875,232.875,73.4784,-169.0536,1023.2,3.6,-999.0,yes,yes,no,300234061364420,BD2GI,AOML,UNKNOWN,North
2015-08-20T22:00:28Z,1440108029,2015,22,0,232.917,232.875,73.4784,-169.0536,1023.0,3.6,-999.0,yes,yes,no,300234061364420,BD2GI,AOML,UNKNOWN,North
2015-08-20T22:59:31Z,1440111571,2015,23,0,232.958,232.875,73.4784,-169.0536,1022.6,3.6,-999.0,yes,yes,no,300234061364420,BD2GI,AOML,UNKNOWN,North
2015-08-21T00:00:00Z,1440115200,2015,0,0,233.0,233.0,73.4782,-169.0778,1022.5,3.6,-999.0,yes,yes,no,300234061364420,BD2GI,AOML,UNKNOWN,North
2015-08-21T01:00:28Z,1440118829,2015,1,0,233.042,233.0,73.4782,-169.0778,1022.3,3.7,-999.0,yes,yes,no,300234061364420,BD2GI,AOML,UNKNOWN,North
2015-08-21T01:59:31Z,1440122371,2015,2,0,233.083,233.0,73.4782,-169.0778,1021.8,3.7,-999.0,yes,yes,no,300234061364420,BD2GI,AOML,UNKNOWN,North
2015-08-21T03:00:00Z,1440126000,2015,3,0,233.125,233.125,73.4752,-169.1188,1021.7,3.7,-999.0,yes,yes,no,300234061364420,BD2GI,AOML,UNKNOWN,North
2015-08-21T04:00:28Z,1440129629,2015,4,0,233.167,233.125,73.4752,-169.1188,1021.5,3.7,-999.0,yes,yes,no,300234061364420,BD2GI,AOML,UNKNOWN,North
2015-08-21T04:59:31Z,1440133171,2015,5,0,233.208,233.125,73.4752,-169.1188,1021.3,3.7,-999.0,yes,yes,no,300234061364420,BD2GI,AOML,UNKNOWN,North
2015-08-21T06:00:00Z,1440136800,2015,6,0,233.25,233.25,73.4792,-169.173,1021.1,3.7,-999.0,yes,yes,no,300234061364420,BD2GI,AOML,UNKNOWN,North
2015-08-21T07:00:28Z,1440140429,2015,7,0,233.292,233.25,73.4792,-169.173,1021.2,3.7,-999.0,yes,yes,no,300234061364420,BD2GI,AOML,UNKNOWN,North
2015-08-21T07:59:31Z,1440143971,2015,8,0,233.333,233.25,73.4792,-169.173,1021.2,3.7,-999.0,yes,yes,no,300234061364420,BD2GI,AOML,UNKNOWN,North
2015-08-21T09:00:00Z,1440147600,2015,9,0,233.375,233.375,73.4866,-169.193,1021.2,3.7,-999.0,yes,yes,no,300234061364420,BD2GI,AOML,UNKNOWN,North
2015-08-21T10:00:28Z,1440151229,2015,10,0,233.417,233.375,73.4866,-169.193,1021.1,3.6,-999.0,yes,yes,no,300234061364420,BD2GI,AOML,UNKNOWN,North
2015-08-21T10:59:31Z,1440154771,2015,11,0,233.458,233.375,73.4866,-169.193,1020.9,3.6,-999.0,yes,yes,no,300234061364420,BD2GI,AOML,UNKNOWN,North
2015-08-21T12:00:00Z,1440158400,2015,12,0,233.5,233.5,73.4828,-169.194,1020.9,3.6,-999.0,yes,yes,no,300234061364420,BD2GI,AOML,UNKNOWN,North
2015-08-21T13:00:28Z,1440162029,2015,13,0,233.542,233.5,73.4828,-169.194,1020.6,3.6,-999.0,yes,yes,no,300234061364420,BD2GI,AOML,UNKNOWN,North
2015-08-21T13:59:31Z,1440165571,2015,14,0,233.583,233.5,73.4828,-169.194,1020.6,3.6,-999.0,yes,yes,no,300234061364420,BD2GI,AOML,UNKNOWN,North
2015-08-21T15:00:00Z,1440169200,2015,15,0,233.625,233.625,73.4758,-169.2252,1020.6,3.6,-999.0,yes,yes,no,300234061364420,BD2GI,AOML,UNKNOWN,North
2015-08-21T16:00:28Z,1440172829,2015,16,0,233.667,233.625,73.4758,-169.2252,1020.6,3.6,-999.0,yes,yes,no,300234061364420,BD2GI,AOML,UNKNOWN,North
2015-08-21T16:59:31Z,1440176371,2015,17,0,233.708,233.625,73.4758,-169.2252,1020.5,3.6,-999.0,yes,yes,no,300234061364420,BD2GI,AOML,UNKNOWN,North
2015-08-21T18:00:00Z,1440180000,2015,18,0,233.75,233.75,73.4754,-169.266,1020.3,3.6,-999.0,yes,yes,no,300234061364420,BD2GI,AOML,UNKNOWN,North
2015-08-21T19:00:28Z,1440183629,2015,19,0,233.792,233.75,73.4754,-169.266,1020.5,3.6,-999.0,yes,yes,no,300234061364420,BD2GI,AOML,UNKNOWN,North
2015-08-21T19:59:31Z,1440187171,2015,20,0,233.833,233.75,73.4754,-169.266,1020.4,3.6,-999.0,yes,yes,no,300234061364420,BD2GI,AOML,UNKNOWN,North
2015-08-21T21:00:00Z,1440190800,2015,21,0,233.875,233.875,73.476,-169.2854,1020.3,3.6,-999.0,yes,yes,no,300234061364420,BD2GI,AOML,UNKNOWN,North
2015-08-21T22:00:28Z,1440194429,2015,22,0,233.917,233.875,73.476,-169.2854,1020.5,3.7,-999.0,yes,yes,no,300234061364420,BD2GI,AOML,UNKNOWN,North
2015-08-21T22:59:31Z,1440197971,2015,23,0,233.958,233.875,73.476,-169.2854,1020.2,3.7,-999.0,yes,yes,no,300234061364420,BD2GI,AOML,UNKNOWN,North
2015-08-22T00:00:00Z,1440201600,2015,0,0,234.0,234.0,73.4674,-169.2944,1020.1,3.7,-999.0,yes,yes,no,300234061364420,BD2GI,AOML,UNKNOWN,North
2015-08-22T01:00:28Z,1440205229,2015,1,0,234.042,234.0,73.4674,-169.2944,1020.0,3.7,-999.0,yes,yes,no,300234061364420,BD2GI,AOML,UNKNOWN,North
2015-08-22T01:59:31Z,1440208771,2015,2,0,234.083,234.0,73.4674,-169.2944,1019.7,3.7,-999.0,yes,yes,no,300234061364420,BD2GI,AOML,UNKNOWN,North
2015-08-22T03:00:00Z,1440212400,2015,3,0,234.125,234.125,73.4524,-169.3368,1019.4,3.7,-999.0,yes,yes,no,300234061364420,BD2GI,AOML,UNKNOWN,North
2015-08-22T04:00:28Z,1440216029,2015,4,0,234.167,234.125,73.4524,-169.3368,1019.1,3.7,-999.0,yes,yes,no,300234061364420,BD2GI,AOML,UNKNOWN,North
2015-08-22T04:59:31Z,1440219571,2015,5,0,234.208,234.125,73.4524,-169.3368,1019.0,3.7,-999.0,yes,yes,no,300234061364420,BD2GI,AOML,UNKNOWN,North
2015-08-22T06:00:00Z,1440223200,2015,6,0,234.25,234.25,73.4448,-169.3932,1018.8,3.7,-999.0,yes,yes,no,300234061364420,BD2GI,AOML,UNKNOWN,North
2015-08-22T07:00:28Z,1440226829,2015,7,0,234.292,234.25,73.4448,-169.3932,1018.9,3.6,-999.0,yes,yes,no,300234061364420,BD2GI,AOML,UNKNOWN,North
2015-08-22T07:59:31Z,1440230371,2015,8,0,234.333,234.25,73.4448,-169.3932,1018.7,3.6,-999.0,yes,yes,no,300234061364420,BD2GI,AOML,UNKNOWN,North
2015-08-22T09:00:00Z,1440234000,2015,9,0,234.375,234.375,73.4352,-169.4202,1018.7,3.6,-999.0,yes,yes,no,300234061364420,BD2GI,AOML,UNKNOWN,North
2015-08-22T10:00:28Z,1440237629,2015,10,0,234.417,234.375,73.4352,-169.4202,1018.6,3.6,-999.0,yes,yes,no,300234061364420,BD2GI,AOML,UNKNOWN,North
2015-08-22T10:59:31Z,1440241171,2015,11,0,234.458,234.375,73.4352,-169.4202,1018.5,3.6,-999.0,yes,yes,no,300234061364420,BD2GI,AOML,UNKNOWN,North
2015-08-22T12:00:00Z,1440244800,2015,12,0,234.5,234.5,73.4198,-169.4442,1018.4,3.6,-999.0,yes,yes,no,300234061364420,BD2GI,AOML,UNKNOWN,North
2015-08-22T13:00:28Z,1440248429,2015,13,0,234.542,234.5,73.4198,-169.4442,1018.3,3.6,-999.0,yes,yes,no,300234061364420,BD2GI,AOML,UNKNOWN,North
2015-08-22T13:59:31Z,1440251971,2015,14,0,234.583,234.5,73.4198,-169.4442,1018.2,3.6,-999.0,yes,yes,no,300234061364420,BD2GI,AOML,UNKNOWN,North
2015-08-22T15:00:00Z,1440255600,2015,15,0,234.625,234.625,73.4036,-169.49,1018.1,3.4,-999.0,yes,yes,no,300234061364420,BD2GI,AOML,UNKNOWN,North
2015-08-22T16:00:28Z,1440259229,2015,16,0,234.667,234.625,73.4036,-169.49,1018.0,3.4,-999.0,yes,yes,no,300234061364420,BD2GI,AOML,UNKNOWN,North
2015-08-22T16:59:31Z,1440262771,2015,17,0,234.708,234.625,73.4036,-169.49,1018.1,3.4,-999.0,yes,yes,no,300234061364420,BD2GI,AOML,UNKNOWN,North
2015-08-22T18:00:00Z,1440266400,2015,18,0,234.75,234.75,73.3962,-169.5306,1018.0,3.4,-999.0,yes,yes,no,300234061364420,BD2GI,AOML,UNKNOWN,North
2015-08-22T19:00:28Z,1440270029,2015,19,0,234.792,234.75,73.3962,-169.5306,1018.0,3.4,-999.0,yes,yes,no,300234061364420,BD2GI,AOML,UNKNOWN,North
2015-08-22T19:59:31Z,1440273571,2015,20,0,234.833,234.75,73.3962,-169.5306,1018.1,3.4,-999.0,yes,yes,no,300234061364420,BD2GI,AOML,UNKNOWN,North
2015-08-22T21:00:00Z,1440277200,2015,21,0,234.875,234.875,73.3876,-169.5454,1018.2,3.5,-999.0,yes,yes,no,300234061364420,BD2GI,AOML,UNKNOWN,North
2015-08-22T22:00:28Z,1440280829,2015,22,0,234.917,234.875,73.3876,-169.5454,1018.2,3.5,-999.0,yes,yes,no,300234061364420,BD2GI,AOML,UNKNOWN,North
2015-08-22T22:59:31Z,1440284371,2015,23,0,234.958,234.875,73.3876,-169.5454,1018.3,3.5,-999.0,yes,yes,no,300234061364420,BD2GI,AOML,UNKNOWN,North
2015-08-23T00:00:00Z,1440288000,2015,0,0,235.0,235.0,73.3732,-169.5634,1018.4,3.5,-999.0,yes,yes,no,300234061364420,BD2GI,AOML,UNKNOWN,North
2015-08-23T01:00:28Z,1440291629,2015,1,0,235.042,235.0,73.3732,-169.5634,1018.5,3.5,-999.0,yes,yes,no,300234061364420,BD2GI,AOML,UNKNOWN,North
2015-08-23T01:59:31Z,1440295171,2015,2,0,235.083,235.0,73.3732,-169.5634,1018.5,3.5,-999.0,yes,yes,no,300234061364420,BD2GI,AOML,UNKNOWN,North
2015-08-23T03:00:00Z,1440298800,2015,3,0,235.125,235.125,73.362,-169.5926,1018.7,3.5,-999.0,yes,yes,no,300234061364420,BD2GI,AOML,UNKNOWN,North
2015-08-23T04:00:28Z,1440302429,2015,4,0,235.167,235.125,73.362,-169.5926,1018.9,3.5,-999.0,yes,yes,no,300234061364420,BD2GI,AOML,UNKNOWN,North
2015-08-23T04:59:31Z,1440305971,2015,5,0,235.208,235.125,73.362,-169.5926,1019.0,3.5,-999.0,yes,yes,no,300234061364420,BD2GI,AOML,UNKNOWN,North
2015-08-23T06:00:00Z,1440309600,2015,6,0,235.25,235.25,73.3564,-169.6046,1019.2,3.6,-999.0,yes,yes,no,300234061364420,BD2GI,AOML,UNKNOWN,North
2015-08-23T07:00:28Z,1440313229,2015,7,0,235.292,235.25,73.3564,-169.6046,1019.4,3.5,-999.0,yes,yes,no,300234061364420,BD2GI,AOML,UNKNOWN,North
2015-08-23T07:59:31Z,1440316771,2015,8,0,235.333,235.25,73.3564,-169.6046,1019.7,3.5,-999.0,yes,yes,no,300234061364420,BD2GI,AOML,UNKNOWN,North
2015-08-23T09:00:00Z,1440320400,2015,9,0,235.375,235.375,73.3474,-169.6002,1019.9,3.5,-999.0,yes,yes,no,300234061364420,BD2GI,AOML,UNKNOWN,North
2015-08-23T10:00:28Z,1440324029,2015,10,0,235.417,235.375,73.3474,-169.6002,1020.2,3.5,-999.0,yes,yes,no,300234061364420,BD2GI,AOML,UNKNOWN,North
2015-08-23T10:59:31Z,1440327571,2015,11,0,235.458,235.375,73.3474,-169.6002,1020.4,3.5,-999.0,yes,yes,no,300234061364420,BD2GI,AOML,UNKNOWN,North
2015-08-23T12:00:00Z,1440331200,2015,12,0,235.5,235.5,73.3388,-169.6042,1020.5,3.5,-999.0,yes,yes,no,300234061364420,BD2GI,AOML,UNKNOWN,North
2015-08-23T13:00:28Z,1440334829,2015,13,0,235.542,235.5,73.3388,-169.6042,1020.7,3.5,-999.0,yes,yes,no,300234061364420,BD2GI,AOML,UNKNOWN,North
2015-08-23T13:59:31Z,1440338371,2015,14,0,235.583,235.5,73.3388,-169.6042,1020.8,3.5,-999.0,yes,yes,no,300234061364420,BD2GI,AOML,UNKNOWN,North
2015-08-23T15:00:00Z,1440342000,2015,15,0,235.625,235.625,73.3308,-169.6032,1020.7,3.5,-999.0,yes,yes,no,300234061364420,BD2GI,AOML,UNKNOWN,North
2015-08-23T16:00:28Z,1440345629,2015,16,0,235.667,235.625,73.3308,-169.6032,1020.7,3.5,-999.0,yes,yes,no,300234061364420,BD2GI,AOML,UNKNOWN,North
2015-08-23T16:59:31Z,1440349171,2015,17,0,235.708,235.625,73.3308,-169.6032,1020.9,3.5,-999.0,yes,yes,no,300234061364420,BD2GI,AOML,UNKNOWN,North
2015-08-23T18:00:00Z,1440352800,2015,18,0,235.75,235.75,73.3234,-169.5926,1021.1,3.5,-999.0,yes,yes,no,300234061364420,BD2GI,AOML,UNKNOWN,North
2015-08-23T19:00:28Z,1440356429,2015,19,0,235.792,235.75,73.3234,-169.5926,1021.0,3.5,-999.0,yes,yes,no,300234061364420,BD2GI,AOML,UNKNOWN,North
2015-08-23T19:59:31Z,1440359971,2015,20,0,235.833,235.75,73.3234,-169.5926,1021.2,3.5,-999.0,yes,yes,no,300234061364420,BD2GI,AOML,UNKNOWN,North
2015-08-23T21:00:00Z,1440363600,2015,21,0,235.875,235.875,73.3154,-169.5864,1021.3,3.5,-999.0,yes,yes,no,300234061364420,BD2GI,AOML,UNKNOWN,North
2015-08-23T22:00:28Z,1440367229,2015,22,0,235.917,235.875,73.3154,-169.5864,1021.2,3.5,-999.0,yes,yes,no,300234061364420,BD2GI,AOML,UNKNOWN,North
2015-08-23T22:59:31Z,1440370771,2015,23,0,235.958,235.875,73.3154,-169.5864,1021.3,3.5,-999.0,yes,yes,no,300234061364420,BD2GI,AOML,UNKNOWN,North
2015-08-24T00:00:00Z,1440374400,2015,0,0,236.0,236.0,73.3096,-169.5756,1021.4,3.5,-999.0,yes,yes,no,300234061364420,BD2GI,AOML,UNKNOWN,North
2015-08-24T01:00:28Z,1440378029,2015,1,0,236.042,236.0,73.3096,-169.5756,1021.3,3.5,-999.0,yes,yes,no,300234061364420,BD2GI,AOML,UNKNOWN,North
2015-08-24T01:59:31Z,1440381571,2015,2,0,236.083,236.0,73.3096,-169.5756,1021.4,3.5,-999.0,yes,yes,no,300234061364420,BD2GI,AOML,UNKNOWN,North
2015-08-24T03:00:00Z,1440385200,2015,3,0,236.125,236.125,73.3028,-169.5596,1021.3,3.5,-999.0,yes,yes,no,300234061364420,BD2GI,AOML,UNKNOWN,North
2015-08-24T04:00:28Z,1440388829,2015,4,0,236.167,236.125,73.3028,-169.5596,1021.2,3.5,-999.0,yes,yes,no,300234061364420,BD2GI,AOML,UNKNOWN,North
2015-08-24T04:59:31Z,1440392371,2015,5,0,236.208,236.125,73.3028,-169.5596,1021.0,3.5,-999.0,yes,yes,no,300234061364420,BD2GI,AOML,UNKNOWN,North
2015-08-24T06:00:00Z,1440396000,2015,6,0,236.25,236.25,73.2956,-169.5498,1021.1,3.5,-999.0,yes,yes,no,300234061364420,BD2GI,AOML,UNKNOWN,North
2015-08-24T07:00:28Z,1440399629,2015,7,0,236.292,236.25,73.2956,-169.5498,1021.1,3.5,-999.0,yes,yes,no,300234061364420,BD2GI,AOML,UNKNOWN,North
2015-08-24T07:59:31Z,1440403171,2015,8,0,236.333,236.25,73.2956,-169.5498,1021.1,3.5,-999.0,yes,yes,no,300234061364420,BD2GI,AOML,UNKNOWN,North
2015-08-24T09:00:00Z,1440406800,2015,9,0,236.375,236.375,73.292,-169.5414,1021.2,3.5,-999.0,yes,yes,no,300234061364420,BD2GI,AOML,UNKNOWN,North
2015-08-24T10:00:28Z,1440410429,2015,10,0,236.417,236.375,73.292,-169.5414,1021.3,3.5,-999.0,yes,yes,no,300234061364420,BD2GI,AOML,UNKNOWN,North
2015-08-24T10:59:31Z,1440413971,2015,11,0,236.458,236.375,73.292,-169.5414,1021.0,3.5,-999.0,yes,yes,no,300234061364420,BD2GI,AOML,UNKNOWN,North
2015-08-24T12:00:00Z,1440417600,2015,12,0,236.5,236.5,73.2918,-169.5252,1020.8,3.5,-999.0,yes,yes,no,300234061364420,BD2GI,AOML,UNKNOWN,North
2015-08-24T13:00:28Z,1440421229,2015,13,0,236.542,236.5,73.2918,-169.5252,1020.5,3.5,-999.0,yes,yes,no,300234061364420,BD2GI,AOML,UNKNOWN,North
2015-08-24T13:59:31Z,1440424771,2015,14,0,236.583,236.5,73.2918,-169.5252,1020.1,3.5,-999.0,yes,yes,no,300234061364420,BD2GI,AOML,UNKNOWN,North
2015-08-24T15:00:00Z,1440428400,2015,15,0,236.625,236.625,73.2902,-169.507,1020.2,3.5,-999.0,yes,yes,no,300234061364420,BD2GI,AOML,UNKNOWN,North
2015-08-24T16:00:28Z,1440432029,2015,16,0,236.667,236.625,73.2902,-169.507,1019.7,3.5,-999.0,yes,yes,no,300234061364420,BD2GI,AOML,UNKNOWN,North
2015-08-24T16:59:31Z,1440435571,2015,17,0,236.708,236.625,73.2902,-169.507,1019.4,3.5,-999.0,yes,yes,no,300234061364420,BD2GI,AOML,UNKNOWN,North
2015-08-24T18:00:00Z,1440439200,2015,18,0,236.75,236.75,73.2888,-169.4996,1019.4,3.5,-999.0,yes,yes,no,300234061364420,BD2GI,AOML,UNKNOWN,North
2015-08-24T19:00:28Z,1440442829,2015,19,0,236.792,236.75,73.2888,-169.4996,1018.9,3.5,-999.0,yes,yes,no,300234061364420,BD2GI,AOML,UNKNOWN,North
2015-08-24T19:59:31Z,1440446371,2015,20,0,236.833,236.75,73.2888,-169.4996,1018.6,3.5,-999.0,yes,yes,no,300234061364420,BD2GI,AOML,UNKNOWN,North
2015-08-24T21:00:00Z,1440450000,2015,21,0,236.875,236.875,73.2912,-169.4932,1018.0,3.5,-999.0,yes,yes,no,300234061364420,BD2GI,AOML,UNKNOWN,North
2015-08-24T22:00:28Z,1440453629,2015,22,0,236.917,236.875,73.2912,-169.4932,1017.4,3.5,-999.0,yes,yes,no,300234061364420,BD2GI,AOML,UNKNOWN,North
2015-08-24T22:59:31Z,1440457171,2015,23,0,236.958,236.875,73.2912,-169.4932,1016.8,3.6,-999.0,yes,yes,no,300234061364420,BD2GI,AOML,UNKNOWN,North
2015-08-25T00:00:00Z,1440460800,2015,0,0,237.0,237.0,73.2948,-169.4856,1016.1,3.6,-999.0,yes,yes,no,300234061364420,BD2GI,AOML,UNKNOWN,North
2015-08-25T01:00:28Z,1440464429,2015,1,0,237.042,237.0,73.2948,-169.4856,1015.4,3.6,-999.0,yes,yes,no,300234061364420,BD2GI,AOML,UNKNOWN,North
2015-08-25T01:59:31Z,1440467971,2015,2,0,237.083,237.0,73.2948,-169.4856,1014.7,3.6,-999.0,yes,yes,no,300234061364420,BD2GI,AOML,UNKNOWN,North
2015-08-25T03:00:00Z,1440471600,2015,3,0,237.125,237.125,73.2986,-169.4774,1014.1,3.6,-999.0,yes,yes,no,300234061364420,BD2GI,AOML,UNKNOWN,North
2015-08-25T04:00:28Z,1440475229,2015,4,0,237.167,237.125,73.2986,-169.4774,1013.3,3.6,-999.0,yes,yes,no,300234061364420,BD2GI,AOML,UNKNOWN,North
2015-08-25T04:59:31Z,1440478771,2015,5,0,237.208,237.125,73.2986,-169.4774,1012.6,3.6,-999.0,yes,yes,no,300234061364420,BD2GI,AOML,UNKNOWN,North
2015-08-25T06:00:00Z,1440482400,2015,6,0,237.25,237.25,73.3028,-169.4718,1011.8,3.7,-999.0,yes,yes,no,300234061364420,BD2GI,AOML,UNKNOWN,North
2015-08-25T07:00:28Z,1440486029,2015,7,0,237.292,237.25,73.3028,-169.4718,1010.9,3.8,-999.0,yes,yes,no,300234061364420,BD2GI,AOML,UNKNOWN,North
2015-08-25T07:59:31Z,1440489571,2015,8,0,237.333,237.25,73.3028,-169.4718,1010.1,3.9,-999.0,yes,yes,no,300234061364420,BD2GI,AOML,UNKNOWN,North